When you browse on this site, cookies collect data to enhance your experience and personalize the content and advertising you see.
Visit our Privacy Policy to learn more. By continuing to use the site, you agree to this use of cookies and data.
  • In Hungary
  • List of Countries
  • For 7 days
  • Water Temperature
  • Satellite Maps
  • Weather Map
  • News
  • Weather Widgets
  • user-avatar
    Login

    Hourly Weather Staroyaksheevo

    Today, 19 November, Monday

    Time Temperature Precipitation Wind Pressure Humidity
    00:00 -4°C° 0.1 mm 3 mps 756 mmHg 80%
    01:00 -3°C° 0.1 mm 2 mps 756 mmHg 82%
    02:00 -3°C° 0.1 mm 2 mps 756 mmHg 84%
    03:00 -3°C° 0.1 mm 2 mps 757 mmHg 86%
    04:00 -3°C° 0 mm 2 mps 756 mmHg 86%
    05:00 -3°C° 0 mm 2 mps 757 mmHg 87%
    06:00 -3°C° 0 mm 2 mps 757 mmHg 88%
    07:00 -3°C° 0 mm 2 mps 757 mmHg 89%
    08:00 -2°C° 0.1 mm 2 mps 757 mmHg 89%
    09:00 -2°C° 0.1 mm 2 mps 757 mmHg 89%
    10:00 -2°C° 0 mm 2 mps 757 mmHg 89%
    11:00 -2°C° 0.1 mm 2 mps 757 mmHg 89%
    12:00 -1°C° 0.1 mm 2 mps 757 mmHg 89%
    13:00 -1°C° 0.1 mm 2 mps 757 mmHg 89%
    14:00 -1°C° 0.1 mm 2 mps 757 mmHg 91%
    15:00 -2°C° 0.1 mm 2 mps 757 mmHg 93%
    16:00 -2°C° 0.1 mm 2 mps 757 mmHg 95%
    17:00 -2°C° 0.1 mm 2 mps 757 mmHg 95%
    18:00 0°C° 0.1 mm 1 mps 757 mmHg 96%
    19:00 0°C° 0.1 mm 1 mps 757 mmHg 96%
    20:00 0°C° 0.2 mm 1 mps 757 mmHg 96%
    21:00 0°C° 0.2 mm 1 mps 757 mmHg 96%
    22:00 0°C° 0.2 mm 1 mps 757 mmHg 96%
    23:00 0°C° 0.1 mm 1 mps 757 mmHg 96%

    Tomorrow, 20 November, Tuesday

    Time Temperature Precipitation Wind Pressure Humidity
    00:00 0°C° 0.1 mm 1 mps 757 mmHg 96%
    01:00 0°C° 0.1 mm 1 mps 757 mmHg 96%
    02:00 -1°C° 0.1 mm 1 mps 757 mmHg 96%
    03:00 -1°C° 0.1 mm 1 mps 757 mmHg 96%
    04:00 -1°C° 0.1 mm 1 mps 757 mmHg 96%
    05:00 -1°C° 0.1 mm 1 mps 756 mmHg 95%
    06:00 -1°C° 0.1 mm 1 mps 756 mmHg 95%
    07:00 -1°C° 0.1 mm 1 mps 756 mmHg 95%
    08:00 -1°C° 0 mm 1 mps 756 mmHg 94%
    09:00 -1°C° 0 mm 1 mps 756 mmHg 93%
    10:00 -1°C° 0 mm 1 mps 756 mmHg 92%
    11:00 -1°C° 0 mm 1 mps 756 mmHg 91%
    12:00 0°C° 0 mm 1 mps 756 mmHg 90%
    13:00 0°C° 0 mm 1 mps 755 mmHg 89%
    14:00 0°C° 0 mm 1 mps 755 mmHg 91%
    15:00 0°C° 0 mm 1 mps 755 mmHg 92%
    16:00 -1°C° 0 mm 1 mps 755 mmHg 94%
    17:00 -1°C° 0 mm 1 mps 754 mmHg 94%
    18:00 -1°C° 0 mm 1 mps 754 mmHg 95%
    19:00 -2°C° 0 mm 2 mps 754 mmHg 95%
    20:00 -3°C° 0 mm 2 mps 753 mmHg 96%
    21:00 -3°C° 0 mm 2 mps 753 mmHg 96%
    22:00 -3°C° 0 mm 2 mps 752 mmHg 96%
    23:00 -4°C° 0.1 mm 3 mps 752 mmHg 94%

    Day after tomorrow, 21 November, Wednesday

    Time Temperature Precipitation Wind Pressure Humidity
    00:00 -4°C° 0.1 mm 3 mps 752 mmHg 93%
    01:00 -4°C° 0.1 mm 4 mps 751 mmHg 91%
    02:00 -4°C° 0 mm 4 mps 750 mmHg 90%
    03:00 -5°C° 0 mm 4 mps 750 mmHg 89%
    04:00 -6°C° 0 mm 5 mps 749 mmHg 89%
    05:00 -6°C° 0.1 mm 5 mps 748 mmHg 86%
    06:00 -6°C° 0.1 mm 5 mps 748 mmHg 84%
    07:00 -6°C° 0.1 mm 6 mps 747 mmHg 81%
    08:00 -6°C° 0.1 mm 6 mps 746 mmHg 83%
    09:00 -6°C° 0.1 mm 6 mps 746 mmHg 85%
    10:00 -8°C° 0.1 mm 6 mps 745 mmHg 86%
    11:00 -6°C° 0.4 mm 6 mps 744 mmHg 88%
    12:00 -6°C° 0.4 mm 6 mps 744 mmHg 89%
    13:00 -6°C° 0.4 mm 6 mps 743 mmHg 90%
    14:00 -6°C° 0.5 mm 6 mps 742 mmHg 91%
    15:00 -6°C° 0.5 mm 5 mps 742 mmHg 91%
    16:00 -6°C° 0.5 mm 5 mps 741 mmHg 92%
    17:00 -6°C° 0.3 mm 5 mps 741 mmHg 91%
    18:00 -6°C° 0.3 mm 5 mps 740 mmHg 91%
    19:00 -6°C° 0.3 mm 5 mps 740 mmHg 91%
    20:00 -6°C° 0.1 mm 5 mps 740 mmHg 90%
    21:00 -7°C° 0.1 mm 5 mps 740 mmHg 88%
    22:00 -7°C° 0.1 mm 5 mps 740 mmHg 87%
    23:00 -8°C° 0.1 mm 5 mps 741 mmHg 85%

    22 November, Thursday

    Time Temperature Precipitation Wind Pressure Humidity
    00:00 -10°C° 0.1 mm 5 mps 741 mmHg 83%
    01:00 -10°C° 0.1 mm 5 mps 741 mmHg 81%
    02:00 -11°C° 0 mm 5 mps 741 mmHg 83%
    03:00 -11°C° 0 mm 4 mps 742 mmHg 85%
    04:00 -12°C° 0 mm 4 mps 742 mmHg 87%
    05:00 -12°C° 0 mm 4 mps 742 mmHg 89%
    06:00 -12°C° 0 mm 3 mps 742 mmHg 91%
    07:00 -12°C° 0 mm 3 mps 741 mmHg 93%
    08:00 -11°C° 0.1 mm 4 mps 741 mmHg 92%
    09:00 -11°C° 0.1 mm 4 mps 741 mmHg 91%
    10:00 -11°C° 0.1 mm 5 mps 741 mmHg 91%
    11:00 -10°C° 0.1 mm 5 mps 740 mmHg 89%
    12:00 -10°C° 0.1 mm 5 mps 739 mmHg 88%
    13:00 -9°C° 0.1 mm 6 mps 739 mmHg 86%
    14:00 -9°C° 0.3 mm 6 mps 738 mmHg 88%
    15:00 -9°C° 0.3 mm 6 mps 737 mmHg 90%
    16:00 -9°C° 0.3 mm 6 mps 737 mmHg 91%
    17:00 -8°C° 0.5 mm 5 mps 736 mmHg 92%
    18:00 -8°C° 0.5 mm 5 mps 736 mmHg 93%
    19:00 -8°C° 0.5 mm 5 mps 735 mmHg 93%
    20:00 -8°C° 0.4 mm 5 mps 735 mmHg 92%
    21:00 -9°C° 0.4 mm 6 mps 736 mmHg 91%
    22:00 -9°C° 0.4 mm 6 mps 736 mmHg 90%
    23:00 -10°C° 0.1 mm 6 mps 736 mmHg 87%

    23 November, Friday

    Time Temperature Precipitation Wind Pressure Humidity
    00:00 -12°C° 0.1 mm 7 mps 737 mmHg 84%
    01:00 -14°C° 0.1 mm 7 mps 737 mmHg 81%
    02:00 -14°C° 0 mm 7 mps 738 mmHg 80%
    03:00 -15°C° 0 mm 6 mps 739 mmHg 79%
    04:00 -16°C° 0 mm 6 mps 739 mmHg 78%
    05:00 -17°C° 0 mm 6 mps 740 mmHg 80%
    06:00 -18°C° 0 mm 5 mps 741 mmHg 82%
    07:00 -19°C° 0 mm 5 mps 742 mmHg 84%
    08:00 -19°C° 0 mm 5 mps 743 mmHg 85%
    09:00 -19°C° 0 mm 5 mps 744 mmHg 86%
    10:00 -19°C° 0 mm 5 mps 745 mmHg 86%
    11:00 -18°C° 0 mm 5 mps 745 mmHg 86%
    12:00 -17°C° 0 mm 4 mps 746 mmHg 86%
    13:00 -16°C° 0 mm 4 mps 747 mmHg 85%
    14:00 -17°C° 0 mm 4 mps 747 mmHg 87%
    15:00 -16°C° 0 mm 3 mps 748 mmHg 90%
    16:00 -17°C° 0 mm 3 mps 748 mmHg 92%
    17:00 -16°C° 0 mm 2 mps 749 mmHg 93%
    18:00 -16°C° 0 mm 2 mps 749 mmHg 94%
    19:00 -16°C° 0 mm 2 mps 750 mmHg 95%
    20:00 -15°C° 0 mm 2 mps 750 mmHg 95%
    21:00 -16°C° 0 mm 3 mps 750 mmHg 94%
    22:00 -15°C° 0 mm 3 mps 751 mmHg 94%
    23:00 -15°C° 0 mm 3 mps 751 mmHg 94%

    24 November, Saturday

    Time Temperature Precipitation Wind Pressure Humidity
    00:00 -16°C° 0 mm 3 mps 751 mmHg 94%
    01:00 -16°C° 0 mm 3 mps 751 mmHg 94%
    02:00 -16°C° 0.1 mm 4 mps 750 mmHg 93%
    03:00 -15°C° 0.1 mm 4 mps 750 mmHg 92%
    04:00 -14°C° 0.1 mm 5 mps 750 mmHg 92%
    05:00 -14°C° 0.1 mm 6 mps 749 mmHg 91%
    06:00 -14°C° 0.1 mm 6 mps 749 mmHg 91%
    07:00 -13°C° 0.1 mm 7 mps 748 mmHg 90%
    08:00 -13°C° 0.1 mm 7 mps 748 mmHg 89%
    09:00 -13°C° 0.1 mm 8 mps 748 mmHg 87%
    10:00 -12°C° 0.1 mm 8 mps 747 mmHg 86%
    11:00 -12°C° 0.1 mm 9 mps 747 mmHg 85%
    12:00 -11°C° 0.1 mm 9 mps 746 mmHg 85%
    13:00 -11°C° 0.1 mm 9 mps 745 mmHg 84%
    14:00 -11°C° 0.1 mm 9 mps 745 mmHg 84%
    15:00 -10°C° 0.1 mm 9 mps 745 mmHg 84%
    16:00 -10°C° 0.1 mm 9 mps 744 mmHg 84%
    17:00 -10°C° 0.2 mm 9 mps 744 mmHg 85%
    18:00 -9°C° 0.2 mm 9 mps 744 mmHg 86%
    19:00 -9°C° 0.2 mm 9 mps 745 mmHg 86%
    20:00 -8°C° 0.1 mm 9 mps 745 mmHg 87%
    21:00 -7°C° 0.1 mm 8 mps 745 mmHg 87%
    22:00 -7°C° 0.1 mm 8 mps 745 mmHg 87%
    23:00 -7°C° 0.1 mm 8 mps 746 mmHg 87%
    Show more